Location: Friaudour
(46.0460°N, 1.2873°E)
Time: 19:38:51
(UTC+00:00)

Cosmos 1459 Rocket - Pass Details

Date: 14 July 2020
Orbit: 938 x 999 km, 83.0° (Epoch: 14 August)

Event Time Altitude Azimuth Distance (km) Brightness Sun altitude
Exits shadow 00:52:48 30° 150° (SSE) 1,627 4.8 -21.3°
Maximum altitude 00:55:34 52° 91° (E) 1,172 4.4 -21.2°
Drops below altitude 10° 01:01:30 10° 17° (NNE) 2,704 7.5 -20.9°
Sets 01:04:05 0° 13° (NNE) 3,664 8.6 -20.8°
